Lobo

Go HERE for most recent data if this page is not up to date.

Jump to table bottom
Date/Time Temp deg F RH % 24 Hr Snow (in) Snow Depth (in) H2O (in)
07/15 23:00 58.9 26 "NAN" 2.6 0.00
07/15 22:00 61.4 25 "NAN" -0.7 0.00
07/15 21:00 63.8 23 "NAN" -0.5 0.00
07/15 20:00 65.4 22 "NAN" -0.2 0.00
07/15 19:00 66.7 21 "NAN" -0.2 0.00
07/15 18:00 68.3 16 "NAN" -0.5 0.00
07/15 17:00 66.4 33 "NAN" -0.8 0.00
07/15 16:00 67.5 28 "NAN" 0.0 0.00
07/15 15:00 66.1 28 "NAN" -0.6 0.00
07/15 14:00 63.9 34 "NAN" -0.0 0.00
07/15 13:00 64.7 31 "NAN" -0.3 0.00
07/15 12:00 63.0 33 "NAN" 0.2 0.00
07/15 11:00 62.2 32 "NAN" -0.6 0.00
07/15 10:00 60.2 35 "NAN" 0.0 0.00
07/15 09:00 57.4 34 "NAN" 1.3 0.00
07/15 08:00 56.8 38 "NAN" 0.1 0.00
07/15 07:00 56.8 36 "NAN" -0.0 0.00
07/15 06:00 57.7 33 "NAN" 0.3 0.00
07/15 05:00 57.8 33 "NAN" 0.1 0.00
07/15 04:00 57.7 33 "NAN" -0.0 0.00
07/15 03:00 58.9 32 "NAN" 0.5 0.00
07/15 02:00 58.8 33 "NAN" 0.2 0.00
07/15 01:00 60.0 34 "NAN" 0.0 0.00
07/15 00:00 60.3 34 "NAN" -0.5 0.00
07/14 23:00 59.2 36 "NAN" -0.7 0.00
07/14 22:00 60.1 38 "NAN" -0.8 0.00
07/14 21:00 60.7 39 "NAN" -0.2 0.00
07/14 20:00 62.7 43 "NAN" 0.0 0.00
07/14 19:00 62.7 35 "NAN" -0.1 0.00
07/14 18:00 63.5 41 "NAN" -0.0 0.00
07/14 17:00 66.5 28 "NAN" 0.7 0.00
07/14 16:00 67.7 29 "NAN" 0.7 0.00
07/14 15:00 69.6 21 "NAN" -0.0 0.00
07/14 14:00 71.2 23 "NAN" -0.0 0.00
07/14 13:00 72.4 20 "NAN" 0.0 0.00
07/14 12:00 70.3 20 "NAN" -0.8 0.00
07/14 11:00 68.2 22 "NAN" -0.5 0.00
07/14 10:00 65.4 27 "NAN" -0.0 0.00
07/14 09:00 64.1 26 "NAN" 0.4 0.00
07/14 08:00 62.4 24 "NAN" 0.6 0.00
07/14 07:00 63.0 22 "NAN" 0.3 0.00
07/14 06:00 63.0 20 "NAN" 0.5 0.00
07/14 05:00 63.2 20 "NAN" 0.8 0.00
07/14 04:00 62.8 22 "NAN" 1.6 0.00
07/14 03:00 62.9 22 "NAN" 0.8 0.00
07/14 02:00 64.3 23 "NAN" -0.5 0.00
07/14 01:00 65.0 20 "NAN" -0.3 0.00
07/14 00:00 65.6 19 "NAN" 0.5 0.00
.